www.pogodaiklimat.ru

Погода и климат >> Архив погоды >> Бельгия >> Gent


ПОГОДА в Gent

  • Прогноз погоды в Gent
  • Монитор погоды в Gent
  • Климат города

АРХИВ ПОГОДЫ в Gent

Время (UTC), дата Ветер
(напр.,м/с)
 
Видим.   Явления Облачность Т
(С)
Тd
(С)
f
(%)
Тe
(С)
Тes
(С)
Комфортность P
(гПа)
Po
(гПа)
Тmin
(С)
Tmax
(С)
R
(мм)
R24
(мм)
S
(см)
17 11.10 Ю 3
{7}
н/о н/о +22.9 +15.8 64 +27 +27 душно 1010.2 1009.0
16 11.10 Ю 4
{9}
н/о н/о +23.9 +15.9 61 +27 +27 жарко 1009.6 1008.4
18 11.10 ЮВ 3
{6}
н/о н/о +21.6 +15.7 69 +25 +25 комфорт 1010.4 1009.2 +25.2
19 11.10 ЮВ 4 н/о н/о +21.4 +15.7 70 +25 +25 комфорт 1010.2 1009.0
20 11.10 ЮВ 4 н/о н/о +21.1 +15.6 71 +24 +24 комфорт 1010.1 1008.9
21 11.10 Ю 4 н/о н/о +19.1 +15.9 82 +21 +21 комфорт 1010.9 1009.7 2
23 11.10 ЮВ 4 н/о н/о +18.0 +16.4 90 +18 +18 1011.2 1010.0 0.2
22 11.10 ЮВ 5 н/о н/о +18.0 +16.5 91 +18 +18 1011.3 1010.1 2
00 12.10 Ю 4 н/о н/о +17.7 +15.7 88 +17 +17 1012.6 1011.4 0.1
01 12.10 ЮЗ 3 н/о н/о +16.6 +14.5 87 +16 +16 1013.4 1012.2
02 12.10 Ю 3 н/о н/о +15.9 +13.9 88 +15 +15 1013.7 1012.4
03 12.10 Ю 2 н/о н/о +15.4 +13.8 90 +15 +15 1014.0 1012.7
05 12.10 Ю 2 н/о н/о +14.8 +13.9 94 +14 +14 1015.2 1013.9
04 12.10 Ю 3 н/о н/о +15.2 +13.9 92 +14 +14 1014.8 1013.5
06 12.10 Ю 3 н/о н/о +14.8 +13.9 94 +14 +14 1016.0 1014.7 +14.7
07 12.10 Ю 3
{8}
н/о н/о +15.3 +14.2 93 +15 +15 1016.3 1015.0
08 12.10 Ю 4
{8}
н/о н/о +16.3 +15.1 93 +16 +16 1017.0 1015.7
09 12.10 Ю 4
{9}
н/о н/о +17.9 +16.1 89 +18 +18 1017.2 1016.0
11 12.10 Ю 4
{9}
н/о н/о +20.2 +16.1 77 +23 +23 комфорт 1017.6 1016.4
10 12.10 Ю 4
{9}
н/о н/о +18.8 +16.0 84 +20 +20 1017.4 1016.2
12 12.10 Ю 3
{9}
н/о н/о +21.7 +15.6 68 +25 +25 комфорт 1017.7 1016.5
13 12.10 Ю 4
{8}
н/о н/о +22.5 +15.4 64 +26 +26 жарко 1017.5 1016.3
14 12.10 Ю 4
{10}
н/о н/о +23.1 +16.1 65 +28 +28 душно 1017.4 1016.2
15 12.10 Ю 3
{9}
н/о н/о +22.7 +17.8 74 +28 +28 душно 1017.5 1016.3
17 12.10 Ю 4
{9}
н/о н/о +22.4 +17.7 75 +27 +27 душно 1017.4 1016.2
16 12.10 Ю 3
{9}
н/о н/о +22.5 +18.0 76 +28 +28 душно 1017.4 1016.2
18 12.10 Ю 3
{10}
н/о н/о +21.9 +17.8 78 +27 +27 душно 1017.9 1016.7 +23.2
19 12.10 Ю 4 н/о н/о +21.8 +17.4 76 +26 +26 душно 1018.1 1016.9
20 12.10 Ю 3 н/о н/о +21.4 +17.1 76 +25 +25 комфорт 1018.3 1017.1
21 12.10 Ю 3 н/о н/о +21.1 +16.9 77 +25 +25 комфорт 1018.8 1017.6
23 12.10 Ю 2 н/о н/о +20.7 +16.8 78 +25 +25 комфорт 1018.0 1016.8
22 12.10 Ю 3 н/о н/о +20.8 +16.8 78 +25 +25 комфорт 1018.4 1017.2
00 13.10 Ю 3 н/о н/о +20.2 +16.6 80 +23 +23 комфорт 1017.8 1016.6
01 13.10 Ю 2 н/о н/о +19.8 +16.4 81 +23 +23 комфорт 1018.3 1017.1
02 13.10 Ю 3 н/о н/о +19.4 +16.2 82 +22 +22 комфорт 1018.2 1017.0
03 13.10 ЮВ 2 н/о н/о +19.1 +15.9 82 +21 +21 комфорт 1018.2 1017.0
05 13.10 ЮВ 2 н/о н/о +18.6 +15.7 83 +20 +20 1017.6 1016.4
04 13.10 ЮВ 3 н/о н/о +18.0 +15.5 85 +18 +18 1018.0 1016.8
06 13.10 ЮВ 2 н/о н/о +18.4 +15.7 84 +20 +20 1017.4 1016.2 +17.9
07 13.10 ЮВ 4
{6}
н/о н/о +17.9 +15.5 86 +18 +18 1017.3 1016.1
08 13.10 ЮВ 4
{8}
н/о н/о +18.9 +16.0 83 +20 +20 1017.6 1016.4
09 13.10 Ю 3
{8}
н/о н/о +21.5 +16.8 75 +25 +25 комфорт 1017.6 1016.4
11 13.10 Ю 3
{8}
н/о н/о +24.2 +18.3 70 +29 +29 душно 1016.9 1015.7
10 13.10 Ю 3
{8}
н/о н/о +23.1 +17.6 71 +28 +28 душно 1017.3 1016.1
12 13.10 ЮВ 4
{8}
н/о н/о +24.6 +18.3 68 +29 +29 душно 1016.2 1015.0
14 13.10 ЮВ 3
{9}
н/о н/о +26.0 +18.4 63 +31 +31 очень
душно
1014.7 1013.5
15 13.10 Ю 4
{9}
н/о н/о +25.7 +17.6 61 +30 +30 душно 1014.0 1012.8
16 13.10 Ю 4
{8}
н/о н/о +24.7 +17.3 63 +29 +29 душно 1013.5 1012.3
17 13.10 ЮВ 3
{8}
н/о н/о +23.6 +17.3 68 +27 +27 жарко 1013.3 1012.1
18 13.10 Ю 2
{6}
н/о н/о +22.8 +17.3 71 +28 +28 душно 1013.1 1011.9 +26.2
19 13.10 Ю 3 н/о н/о +22.5 +16.7 70 +27 +27 душно 1012.9 1011.7
20 13.10 ЮВ 2 н/о н/о +21.5 +16.3 72 +25 +25 комфорт 1012.7 1011.5
21 13.10 Ю 2 н/о н/о +20.6 +16.0 75 +24 +24 комфорт 1012.6 1011.4
22 13.10 ЮВ 2 н/о н/о +20.4 +15.9 75 +24 +24 комфорт 1012.2 1011.0
23 13.10 ЮВ 2 н/о н/о +19.8 +15.6 77 +23 +23 комфорт 1011.8 1010.6
00 14.10 ЮВ 2 н/о н/о +18.7 +15.4 81 +20 +20 1011.0 1009.8
01 14.10 ЮВ 3 н/о н/о +18.5 +15.1 81 +19 +19 1010.5 1009.3
02 14.10 ЮВ 4 н/о н/о +18.3 +14.7 80 +19 +19 1009.6 1008.4
03 14.10 ЮВ 2 н/о н/о +18.2 +14.5 79 +19 +19 1009.4 1008.2
04 14.10 ЮВ 2 н/о н/о +17.3 +14.2 82 +18 +18 1008.9 1007.7
05 14.10 ЮВ 3 н/о н/о +17.4 +14.0 80 +17 +17 1008.3 1007.1
06 14.10 ЮВ 3 н/о н/о +16.9 +13.7 81 +17 +17 1007.9 1006.7 +16.9
07 14.10 ЮВ 4
{7}
н/о н/о +16.5 +13.2 81 +16 +16 1007.7 1006.5
08 14.10 Ю 3
{7}
н/о н/о +17.6 +13.8 78 +18 +18 1007.7 1006.5
09 14.10 Ю 3
{7}
н/о н/о +20.1 +14.6 71 +23 +23 комфорт 1007.5 1006.3
10 14.10 ЮВ 4
{10}
н/о н/о +22.1 +14.6 62 +25 +25 комфорт 1006.8 1005.6
11 14.10 Ю 4
{11}
н/о н/о +22.8 +14.5 59 +26 +26 жарко 1007.0 1005.8
12 14.10 Ю 4
{9}
н/о н/о +23.4 +14.5 57 +27 +27 душно 1006.7 1005.5
13 14.10 Ю 4
{11}
н/о н/о +23.9 +14.5 56 +27 +27 жарко 1006.3 1005.1
14 14.10 Ю 5
{9}
н/о н/о +24.1 +14.3 54 +27 +27 жарко 1006.5 1005.3
15 14.10 Ю 3
{9}
н/о н/о +24.0 +14.2 54 +26 +26 жарко 1006.5 1005.3
16 14.10 Ю 3
{9}
н/о н/о +23.2 +14.0 56 +27 +27 душно 1006.6 1005.4
17 14.10 Ю 2
{9}
н/о н/о +22.8 +13.8 57 +26 +26 жарко 1006.8 1005.6
18 14.10 Ю 3
{7}
н/о н/о +22.1 +13.6 59 +25 +25 комфорт 1007.1 1005.9 +24.5
19 14.10 В 2 н/о н/о +20.4 +13.5 65 +23 +23 комфорт 1007.3 1006.1
20 14.10 В 1 н/о н/о +19.4 +13.1 67 +22 +22 комфорт 1007.6 1006.4
21 14.10 ЮВ 3 н/о н/о +19.9 +13.4 66 +22 +22 комфорт 1007.8 1006.6
22 14.10 ЮВ 3 н/о н/о +19.9 +13.1 65 +22 +22 комфорт 1007.8 1006.6
23 14.10 ЮВ 2 н/о н/о +19.3 +12.5 65 +21 +21 комфорт 1007.8 1006.6
00 15.10 ЮВ 3 н/о н/о +18.6 +12.2 66 +19 +19 1008.0 1006.8
01 15.10 ЮВ 3 н/о н/о +18.3 +12.8 70 +19 +19 1008.1 1006.9
02 15.10 ЮВ 3 н/о н/о +18.0 +12.1 68 +18 +18 1008.3 1007.1
03 15.10 ЮВ 2 н/о н/о +18.1 +12.1 68 +19 +19 1008.3 1007.1
04 15.10 ЮВ 2 н/о н/о +17.9 +11.9 68 +18 +18 1008.3 1007.1
05 15.10 ЮВ 2 н/о н/о +17.6 +11.7 68 +18 +18 1008.6 1007.4
06 15.10 ЮВ 3 н/о н/о +17.1 +11.7 71 +17 +17 1009.0 1007.8 +17.1
07 15.10 ЮВ 2
{7}
н/о н/о +16.7 +11.8 73 +17 +17 1009.6 1008.4
08 15.10 Ю 3
{7}
н/о н/о +18.3 +12.8 70 +19 +19 1010.3 1009.1
09 15.10 Ю 3
{6}
н/о н/о +20.6 +13.4 63 +23 +23 комфорт 1011.1 1009.9
10 15.10 ЮЗ 3
{8}
н/о н/о +22.0 +13.8 60 +25 +25 комфорт 1011.4 1010.2
11 15.10 ЮЗ 3
{7}
н/о н/о +22.8 +13.9 57 +26 +26 жарко 1011.8 1010.6
12 15.10 Ю 4
{7}
н/о н/о +23.6 +14.3 56 +26 +26 жарко 1011.9 1010.7
13 15.10 Ю 3
{7}
н/о н/о +23.9 +14.5 56 +27 +27 жарко 1012.1 1010.9
14 15.10 ЮЗ 3
{7}
н/о н/о +24.1 +14.4 55 +27 +27 жарко 1012.3 1011.1
15 15.10 ЮЗ 3
{7}
н/о н/о +24.0 +13.5 52 +26 +26 жарко 1012.5 1011.3
16 15.10 ЮЗ 2
{6}
н/о н/о +23.5 +14.2 56 +26 +26 жарко 1012.9 1011.7
17 15.10 Ю 1
{4}
н/о н/о +21.7 +13.6 60 +24 +24 комфорт 1013.6 1012.4
18 15.10 С 1
{7}
н/о н/о +18.8 +15.1 79 +21 +21 комфорт 1014.4 1013.2 +24.3
19 15.10 С 1 н/о н/о +17.0 +14.7 86 +18 +18 1014.6 1013.4
20 15.10 СВ 2 н/о н/о +16.6 +15.0 90 +17 +17 1014.8 1013.6
21 15.10 С 1 н/о н/о +15.9 +14.4 91 +17 +17 1015.2 1013.9
22 15.10 СВ 1 н/о н/о +14.9 +14.0 94 +15 +15 1015.5 1014.2
23 15.10 С 1 н/о н/о +14.2 +13.6 96 +14 +14 1015.8 1014.5
00 16.10 СВ 1 н/о н/о +14.1 +13.6 97 +14 +14 1016.1 1014.8
01 16.10 ЮВ 2 н/о н/о +15.1 +14.4 96 +15 +15 1016.1 1014.8
02 16.10 В 1 н/о н/о +15.0 +13.4 90 +15 +15 1016.4 1015.1
03 16.10 ЮВ 2 н/о н/о +15.3 +12.3 82 +15 +15 1016.5 1015.2
04 16.10 ЮВ 2 н/о н/о +15.4 +11.7 79 +15 +15 1016.7 1015.4
05 16.10 В 1 н/о н/о +14.5 +11.4 82 +15 +15 1016.9 1015.6
06 16.10 штиль 0 н/о н/о +13.3 +11.1 87 +13 +13 1017.2 1015.9 +13.3
07 16.10 ЮВ 1
{2}
н/о н/о +13.5 +11.4 87 +14 +14 1017.7 1016.4
08 16.10 В 1
{1}
н/о н/о +14.7 +12.8 88 +15 +15 1018.1 1016.8
09 16.10 ЮЗ 1
{2}
н/о н/о +17.3 +13.6 79 +18 +18 1018.2 1017.0
10 16.10 В 1
{2}
н/о н/о +20.4 +14.1 67 +24 +24 комфорт 1018.4 1017.2
11 16.10 ЮЗ 1
{2}
н/о н/о +21.5 +12.8 58 +24 +24 комфорт 1018.5 1017.3
12 16.10 З 1
{2}
н/о н/о +22.9 +14.1 58 +26 +26 жарко 1018.4 1017.2
13 16.10 З 1
{2}
н/о н/о +23.9 +12.7 49 +26 +26 жарко 1018.3 1017.1
14 16.10 В 2
{4}
н/о н/о +24.2 +10.9 43 +25 +25 комфорт 1018.2 1017.0
15 16.10 ЮВ 2
{5}
н/о н/о +24.3 +12.0 46 +26 +26 жарко 1018.0 1016.8
16 16.10 В 2
{4}
н/о н/о +23.4 +11.8 48 +26 +26 жарко 1017.7 1016.5
17 16.10 ЮЗ 1
{3}
н/о н/о +21.2 +12.2 56 +23 +23 комфорт 1017.9 1016.7
18 16.10 ЮЗ 1
{5}
н/о н/о +19.5 +12.3 63 +22 +22 комфорт 1018.2 1017.0 +24.7
19 16.10 В 1 н/о н/о +18.2 +12.4 69 +20 +20 1018.1 1016.9
20 16.10 ЮВ 1 н/о н/о +18.3 +12.5 69 +20 +20 1018.1 1016.9
21 16.10 ЮЗ 1
{3}
н/о н/о +17.1 +13.1 77 +18 +18 1018.4 1017.1
22 16.10 Ю 1 н/о н/о +17.2 +12.6 74 +18 +18 1018.3 1017.0
23 16.10 СЗ 2 н/о н/о +15.3 +13.4 88 +15 +15 1018.7 1017.4
00 17.10 СЗ 1 н/о н/о +14.4 +13.3 93 +15 +15 1018.6 1017.3
01 17.10 ЮЗ 1
{2}
н/о н/о +14.0 +13.2 95 +14 +14 1018.6 1017.3
02 17.10 ЮЗ 1
{2}
н/о н/о +13.9 +13.4 97 +14 +14 1018.7 1017.4
03 17.10 Ю 1
{2}
н/о н/о +13.6 +13.1 97 +14 +14 1018.3 1017.0
04 17.10 ЮЗ 1 н/о н/о +13.6 +13.2 97 +14 +14 1018.7 1017.4
05 17.10 ЮЗ 2
{3}
н/о н/о +13.0 +12.7 98 +12 +12 1019.0 1017.7
06 17.10 ЮЗ 1
{3}
н/о н/о +12.8 +12.5 98 +13 +13 1019.1 1017.8 +12.7
07 17.10 ЮЗ 1
{2}
н/о н/о +13.0 +12.8 99 +13 +13 1019.5 1018.2
08 17.10 З 1
{2}
н/о н/о +13.9 +13.7 99 +14 +14 1019.8 1018.5
09 17.10 ЮЗ 2
{3}
н/о н/о +14.7 +14.4 98 +14 +14 1020.1 1018.8
10 17.10 З 2
{3}
н/о н/о +16.3 +15.7 96 +16 +16 1020.2 1018.9
11 17.10 ЮЗ 2
{3}
н/о н/о +19.1 +14.9 77 +21 +21 комфорт 1020.0 1018.8
12 17.10 ЮЗ 1
{3}
н/о н/о +20.0 +14.6 71 +23 +23 комфорт 1020.0 1018.8
13 17.10 СЗ 3
{5}
н/о н/о +19.1 +14.1 73 +21 +21 комфорт 1019.7 1018.5
14 17.10 С 2
{5}
н/о н/о +17.5 +14.0 80 +18 +18 1020.0 1018.7
15 17.10 С 2
{5}
н/о н/о +17.2 +13.3 78 +18 +18 1020.3 1019.0
16 17.10 С 2
{4}
н/о н/о +16.8 +12.3 75 +17 +17 1020.3 1019.0
17 17.10 С 2
{3}
н/о н/о +15.7 +12.4 81 +16 +16 1020.6 1019.3
18 17.10 С 1 н/о н/о +14.7 +12.2 85 +15 +15 1021.2 1019.9 +20.1
19 17.10 С 2 н/о н/о +14.1 +12.0 87 +14 +14 1021.5 1020.2
20 17.10 С 1 н/о н/о +13.5 +11.8 89 +14 +14 1021.9 1020.6
21 17.10 С 1 н/о н/о +12.3 +11.1 92 +12 +12 1022.4 1021.1
22 17.10 С 1 н/о н/о +12.3 +11.5 95 +12 +12 1022.8 1021.5
23 17.10 СЗ 2 н/о н/о +12.4 +11.8 96 +11 +11 1022.8 1021.5
00 18.10 С 1 н/о н/о +11.9 +11.4 97 +12 +12 1023.0 1021.7
01 18.10 С 1 н/о н/о +11.8 +11.3 97 +12 +12 1023.2 1021.9
02 18.10 С 1 н/о н/о +11.6 +11.2 97 +11 +11 1023.2 1021.9
03 18.10 штиль 0 н/о н/о +11.6 +11.2 97 +11 +11 1023.1 1021.8
04 18.10 С 1 н/о н/о +12.1 +11.7 97 +12 +12 1023.4 1022.1
05 18.10 штиль 0 н/о н/о +11.9 +11.4 97 +11 +11 1023.7 1022.4
06 18.10 н/о н/о +12.3 +11.9 97 1023.9 1022.6 +11.5
07 18.10 СВ 1
{4}
н/о н/о +13.1 +12.7 97 +13 +13 1024.4 1023.1
08 18.10 СВ 2
{4}
н/о н/о +13.4 +13.1 98 +13 +13 1024.8 1023.5
09 18.10 СВ 2
{4}
н/о н/о +14.1 +12.9 92 +14 +14 1025.3 1024.0
10 18.10 СВ 3
{6}
н/о н/о +14.8 +12.6 87 +14 +14 1025.6 1024.3
11 18.10 СВ 3
{7}
н/о н/о +15.6 +12.5 82 +15 +15 1025.5 1024.2
12 18.10 СВ 3
{7}
н/о н/о +16.6 +11.0 69 +16 +16 1025.3 1024.0
13 18.10 СВ 2
{6}
н/о н/о +15.8 +10.7 72 +16 +16 1025.2 1023.9
14 18.10 СВ 2
{5}
н/о н/о +16.0 +11.2 73 +16 +16 1025.1 1023.8

 

Местоположение метеостанции Gent (Бельгия): широта 51.18 долгота 3.82 высота над уровнем моря 13 м.

В архиве по умолчанию представлена погода в Gent за последнюю неделю. Архивные данные за месяц целиком и за предыдущие месяцы, начиная с января 2011 года, Вы можете получить, выбрав интересующий диапазон дат из раскрывающегося списка и нажав кнопку "Ввод!".


*Определитесь, кто Вы:
робот инопланетянин человек

Внимание! Время в таблицах - всемирное. Для получения местного времени необходимо прибавить поправку, которая в Gent равна 1 ч.

Смотрите также архив погоды в соседних городах и на ближайших метеорологических станциях:

Погода в Westdorpe (Нидерланды) (7 км)
Погода в Melle (Бельгия) (22 км)
Погода в Hoofdplaat (Нидерланды) (25 км)
Погода в Semmerzake (Бельгия) (30 км)
Погода в Hansweert (Нидерланды) (33 км)
Погода в Vlissingen (Нидерланды) (34 км)
Погода в Cadzand (Нидерланды) (38 км)
Погода в Wilhelminadorp (Нидерланды) (39 км)
Погода в Tholen (Нидерланды) (43 км)
Погода в Antwerpen (Бельгия) (45 км)

Пояснения к столбцам:

Ветер - указаны скорость ветра в м/с - средняя за 10 мин, порывы в срок и между сроками (в фигурных скобках) и направление, откуда дует ветер: С - северный, СВ - северо-восточный, В - восточный, ЮВ - юго-восточный, Ю - южный, ЮЗ - юго-западный, З - западный, СЗ - северо-западный.
Видимость - горизонтальная дальность видимости в метрах или километрах. При видимости от 1 до 10 км при отсутствии осадков обычно наблюдается дымка, при ухудшении видимости до 1 км и менее - туман. В сухую погоду видимость может ухудшаться дымом, пылью или мглою.
Явления - указаны атмосферные явления, наблюдавшиеся в срок или в последний час перед сроком; фигурными скобками обозначены явления, наблюдавшиеся между сроками (за 1-3 часа до срока); квадратными скобками обозначены град или гололедные отложения с указанием их диаметра в мм.
Облачность - указаны через наклонную черту общая и нижняя облачность в баллах и высота нижней границы облаков в метрах; квадратными скобками обозначены формы облаков: Ci - перистые, Cs - перисто-слоистые, Cc - перисто-кучевые, Ac - высококучевые, As - высокослоистые, Sc - слоисто-кучевые, Ns - слоисто-дождевые, Cu - кучевые, Cb - кучево-дождевые. Подробнее классификацию облаков см. в Атласе облаков (PDF).
T - Температура воздуха - температура, измеренная на высоте 2 м над землей.
Td - Температура точки росы - температура, при понижении до которой содержащийся в воздухе водяной пар достигнет насыщения.
f - Относительная влажность воздуха - влажноcть воздуха, измеренная на высоте 2 м над землей.
Te - Эффективная температура - температура, которую ощущает одетый по сезону человек в тени. Характеристика душности погоды. При расчете учитывается влияние влажности воздуха и скорости ветра на теплоощущения человека.
Tes - Эффективная температура на солнце - температура, которую ощущает человек, с поправкой на солнечный нагрев. Характеристика знойности погоды. Зависит от высоты солнца над горизонтом, облачности и скорости ветра. Ночью, в пасмурную погоду, а также при ветре 12 м/с и более поправка равна нулю.
P - Атмосферное давление - приведенное к уровню моря атмосферное давление.
Po - Атмосферное давление - измеренное на уровне метеостанции атмосферное давление.
Tmin - Минимальная температура - минимум температуры воздуха на высоте 2 м над землей.
Tmax - Максимальная температура - максимум температуры воздуха на высоте 2 м над землей.
R - Количество осадков - Количество выпавших осадков за период времени, мм. При наведении курсора мыши на число - период времени, за который выпало указанное количество осадков.
R24 - Количество осадков - Количество выпавших осадков за 24 часа, мм.
S - Снежный покров - Высота снежного покрова, см. При наведении курсора мыши на число - состояние снежного покрова и степень покрытия местности в баллах.